Weather History for KLAA - May, 2013

Change the Weather History Date:

Thursday, May 16, 2013

  Actual Average Record
Temperature  
Mean Temperature 75 °F 62 °F  
Max Temperature 92 °F 79 °F 97 °F (1927)
Min Temperature 57 °F 46 °F 28 °F (1923)
Degree Days  
Heating Degree Days 0 4  
Month to date heating degree days 153 100  
Since 1 July heating degree days 5473 5500  
Cooling Degree Days 10 2  
Month to date cooling degree days 40 16  
Year to date cooling degree days 42 21  
Growing Degree Days 24 (Base 50)    
Moisture  
Dew Point 46 °F    
Average Humidity 44    
Maximum Humidity 72    
Minimum Humidity 16    
Precipitation  
Precipitation 0.00 in 0.06 in 1.02 in (1989)
Month to date precipitation 0.18 0.78  
Year to date precipitation 0.51 3.61  
Sea Level Pressure  
Sea Level Pressure 29.66 in    
Wind  
Wind Speed 12 mph (SE)    
Max Wind Speed 26 mph    
Max Gust Speed 35 mph    
Visibility 10 miles    
Events      
T = Trace of Precipitation, MM = Missing Value Source: NWS Daily Summary

Daily Weather History Graph

Daily Weather History Graph

Search for Another Location

Airport or City:

Trip Planner

Search our weather history database for the weather conditions in past years. The results will help you decide how hot, cold, wet, or windy it might be!

Date:

Astronomy

May. 16, 2013 Rise Set
Actual Time 5:39 AM MDT 7:55 PM MDT
Civil Twilight 5:09 AM MDT 8:25 PM MDT
Nautical Twilight 4:33 AM MDT 9:01 PM MDT
Astronomical Twilight 3:53 AM MDT 9:42 PM MDT
Moon 11:12 AM MDT (5/16) 12:19 AM MDT (5/16)
Length of Visible Light 15h 15m
Length of Day
14h 16m
Waxing Crescent, 36% of the Moon is Illuminated
May 16
Waxing Crescent
May 17
First Quarter
May 24
Full
May 31
Last Quarter
Jun 8
New

Hourly Weather History & Observations

Time (MDT) Temp. Dew Point Humidity Pressure Visibility Wind Dir Wind Speed Gust Speed Precip Events Conditions
12:53 AM 63.0 °F 50.0 °F 63% 29.72 in 10.0 mi NNE 4.6 mph - N/A   Clear
1:53 AM 63.0 °F 50.0 °F 63% 29.70 in 10.0 mi NNE 4.6 mph - N/A   Clear
2:53 AM 63.0 °F 48.9 °F 60% 29.68 in 10.0 mi East 8.1 mph - N/A   Mostly Cloudy
3:53 AM 63.0 °F 48.9 °F 60% 29.69 in 10.0 mi East 8.1 mph - N/A   Clear
4:53 AM 60.1 °F 50.0 °F 69% 29.72 in 10.0 mi South 5.8 mph - N/A   Clear
5:53 AM 57.9 °F 48.0 °F 70% 29.72 in 10.0 mi SSW 6.9 mph - N/A   Clear
6:53 AM 64.0 °F 48.9 °F 58% 29.73 in 10.0 mi Calm Calm - N/A   Clear
7:53 AM 69.1 °F 48.9 °F 49% 29.73 in 10.0 mi WSW 4.6 mph - N/A   Clear
8:53 AM 72.0 °F 48.9 °F 44% 29.73 in 10.0 mi WSW 6.9 mph - N/A   Clear
9:53 AM 75.0 °F 48.0 °F 38% 29.71 in 10.0 mi SSW 5.8 mph - N/A   Clear
10:53 AM 81.0 °F 46.0 °F 29% 29.70 in 10.0 mi South 12.7 mph 24.2 mph N/A   Clear
11:53 AM 86.0 °F 41.0 °F 20% 29.66 in 10.0 mi Variable 5.8 mph - N/A   Clear
12:53 PM 87.1 °F 41.0 °F 20% 29.65 in 10.0 mi South 16.1 mph 21.9 mph N/A   Clear
1:53 PM 86.0 °F 39.9 °F 20% 29.62 in 10.0 mi South 9.2 mph 18.4 mph N/A   Scattered Clouds
2:53 PM 86.0 °F 42.1 °F 21% 29.60 in 10.0 mi SSE 12.7 mph 19.6 mph N/A   Mostly Cloudy
4:53 PM 90.0 °F 41.0 °F 18% 29.56 in 10.0 mi South 12.7 mph - N/A   Partly Cloudy
5:13 PM 89.6 °F 42.8 °F 20% 29.71 in 10.0 mi SE 18.4 mph - N/A   Partly Cloudy
5:53 PM 86.0 °F 44.1 °F 23% 29.57 in 10.0 mi ESE 20.7 mph 28.8 mph N/A   Clear
6:53 PM 82.9 °F 44.1 °F 25% 29.57 in 10.0 mi SE 16.1 mph - N/A   Clear
7:53 PM 79.0 °F 43.0 °F 28% 29.59 in 10.0 mi SE 12.7 mph - N/A   Clear
8:53 PM 75.0 °F 45.0 °F 34% 29.61 in 10.0 mi ESE 17.3 mph 24.2 mph N/A   Clear
9:53 PM 72.0 °F 46.0 °F 40% 29.65 in 10.0 mi East 19.6 mph 25.3 mph N/A   Clear
10:53 PM 70.0 °F 51.1 °F 51% 29.65 in 10.0 mi ESE 21.9 mph 29.9 mph N/A   Clear
11:53 PM 66.0 °F 54.0 °F 65% 29.67 in 10.0 mi ESE 23.0 mph 34.5 mph N/A   Clear